Station Historical Data
Daily Summary for May 20, 2017 Units:  English    Metric   Both
Next Day »
Daily Weekly Monthly Yearly Custom
  High: Low: Average:
Temperature: 78.7 °F 57.1 °F 67.5 °F
Dew Point: 51.8 °F 45.5 °F 48.2 °F
Humidity: 75% 33% 52%
Wind Speed: 7.0mph 0.0mph 0.8mph
Wind Gust: 12.0mph - -
Wind- - SSW
Pressure: 29.99 in 29.91 in -
Precipitation: 0.00 in    
Historical Graphs
 
 
Tabular Data for May 20, 2017
Time Temperature Dew Point Pressure Wind Wind Speed Wind Gust Humidity Rainfall Rate (Hourly) solar Conditions
00:00 62.0 °F 47.1 °F 29.97 in East 1.0 mph 1.0 mph 58% 0.00 in 0.00 W/m2
00:05 62.0 °F 47.5 °F 29.97 in Calm   1.0 mph 59% 0.00 in 0.00 W/m2
00:10 61.9 °F 47.4 °F 29.97 in Calm   1.0 mph 59% 0.00 in 0.00 W/m2
00:15 61.8 °F 47.3 °F 29.97 in Calm   1.0 mph 59% 0.00 in 0.00 W/m2
00:20 61.8 °F 46.9 °F 29.97 in East 1.0 mph 1.0 mph 58% 0.00 in 0.00 W/m2
00:25 61.7 °F 46.8 °F 29.97 in Calm   1.0 mph 58% 0.00 in 0.00 W/m2
00:30 61.7 °F 46.8 °F 29.97 in Calm   1.0 mph 58% 0.00 in 0.00 W/m2
00:35 61.6 °F 46.7 °F 29.97 in Calm   1.0 mph 58% 0.00 in 0.00 W/m2
00:40 61.5 °F 47.1 °F 29.97 in ESE 1.0 mph 1.0 mph 59% 0.00 in 0.00 W/m2
00:43 61.5 °F 47.1 °F 29.97 in ESE 1.0 mph 1.0 mph 59% 0.00 in 0.00 W/m2
00:48 61.4 °F 47.0 °F 29.97 in Calm   1.0 mph 59% 0.00 in 0.00 W/m2
00:53 61.4 °F 47.0 °F 29.97 in Calm   1.0 mph 59% 0.00 in 0.00 W/m2
00:58 61.3 °F 46.9 °F 29.97 in Calm   1.0 mph 59% 0.00 in 0.00 W/m2
01:03 61.2 °F 47.2 °F 29.97 in ESE 1.0 mph 1.0 mph 60% 0.00 in 0.00 W/m2
01:08 61.2 °F 46.8 °F 29.97 in ESE 2.0 mph 2.0 mph 59% 0.00 in 0.00 W/m2
01:09 61.2 °F 46.8 °F 29.97 in ESE 1.0 mph 2.0 mph 59% 0.00 in 0.00 W/m2
01:14 61.1 °F 47.1 °F 29.96 in ESE 1.0 mph 1.0 mph 60% 0.00 in 0.00 W/m2
01:19 61.0 °F 47.0 °F 29.96 in Calm   2.0 mph 60% 0.00 in 0.00 W/m2
01:24 60.9 °F 46.9 °F 29.96 in East 1.0 mph 2.0 mph 60% 0.00 in 0.00 W/m2
01:30 60.8 °F 46.8 °F 29.96 in East 1.0 mph 2.0 mph 60% 0.00 in 0.00 W/m2
01:34 60.7 °F 46.8 °F 29.96 in Calm   2.0 mph 60% 0.00 in 0.00 W/m2
01:39 60.6 °F 46.7 °F 29.96 in East 1.0 mph 2.0 mph 60% 0.00 in 0.00 W/m2
01:44 60.5 °F 46.6 °F 29.96 in Calm   2.0 mph 60% 0.00 in 0.00 W/m2
01:49 60.5 °F 47.0 °F 29.95 in Calm   2.0 mph 61% 0.00 in 0.00 W/m2
02:00 60.4 °F 46.9 °F 29.95 in East 2.0 mph 2.0 mph 61% 0.00 in 0.00 W/m2
02:05 60.3 °F 46.8 °F 29.95 in Calm   4.0 mph 61% 0.00 in 0.00 W/m2
02:10 60.3 °F 46.8 °F 29.94 in Calm   2.0 mph 61% 0.00 in 0.00 W/m2
02:15 60.2 °F 46.7 °F 29.94 in East 1.0 mph 1.0 mph 61% 0.00 in 0.00 W/m2
02:20 60.2 °F 46.7 °F 29.94 in Calm   4.0 mph 61% 0.00 in 0.00 W/m2
02:25 60.1 °F 47.0 °F 29.94 in ESE 2.0 mph 5.0 mph 62% 0.00 in 0.00 W/m2
02:30 60.0 °F 47.0 °F 29.94 in ESE 1.0 mph 5.0 mph 62% 0.00 in 0.00 W/m2
02:35 60.0 °F 47.0 °F 29.94 in Calm   2.0 mph 62% 0.00 in 0.00 W/m2
02:40 59.9 °F 46.9 °F 29.94 in East 1.0 mph 2.0 mph 62% 0.00 in 0.00 W/m2
02:45 59.9 °F 46.4 °F 29.94 in Calm   1.0 mph 61% 0.00 in 0.00 W/m2
02:50 59.8 °F 46.8 °F 29.94 in East 1.0 mph 2.0 mph 62% 0.00 in 0.00 W/m2
02:55 59.8 °F 46.8 °F 29.94 in Calm   2.0 mph 62% 0.00 in 0.00 W/m2
03:00 59.7 °F 47.1 °F 29.94 in Calm   2.0 mph 63% 0.00 in 0.00 W/m2
03:05 59.6 °F 47.0 °F 29.94 in Calm   2.0 mph 63% 0.00 in 0.00 W/m2
03:10 59.6 °F 47.0 °F 29.94 in Calm   1.0 mph 63% 0.00 in 0.00 W/m2
03:15 59.5 °F 46.5 °F 29.94 in Calm   1.0 mph 62% 0.00 in 0.00 W/m2
03:20 59.4 °F 46.8 °F 29.94 in Calm   1.0 mph 63% 0.00 in 0.00 W/m2
03:25 59.3 °F 46.7 °F 29.94 in Calm   1.0 mph 63% 0.00 in 0.00 W/m2
03:30 59.3 °F 46.7 °F 29.94 in ESE 1.0 mph 1.0 mph 63% 0.00 in 0.00 W/m2
03:35 59.2 °F 46.6 °F 29.94 in Calm   1.0 mph 63% 0.00 in 0.00 W/m2
03:40 59.1 °F 46.5 °F 29.94 in Calm   1.0 mph 63% 0.00 in 0.00 W/m2
03:45 59.0 °F 46.4 °F 29.94 in ESE 1.0 mph 1.0 mph 63% 0.00 in 0.00 W/m2
03:50 58.9 °F 46.8 °F 29.94 in Calm   1.0 mph 64% 0.00 in 0.00 W/m2
03:55 58.8 °F 46.7 °F 29.94 in Calm   1.0 mph 64% 0.00 in 0.00 W/m2
04:00 58.7 °F 47.0 °F 29.94 in ESE 1.0 mph 1.0 mph 65% 0.00 in 0.00 W/m2
04:05 58.6 °F 46.9 °F 29.94 in Calm   1.0 mph 65% 0.00 in 0.00 W/m2
04:10 58.4 °F 46.7 °F 29.94 in Calm   1.0 mph 65% 0.00 in 0.00 W/m2
04:15 58.4 °F 46.7 °F 29.94 in Calm   1.0 mph 65% 0.00 in 0.00 W/m2
04:20 58.3 °F 46.6 °F 29.94 in Calm   1.0 mph 65% 0.00 in 0.00 W/m2
04:26 58.2 °F 46.5 °F 29.94 in Calm   1.0 mph 65% 0.00 in 0.00 W/m2
04:31 58.2 °F 46.5 °F 29.94 in Calm   1.0 mph 65% 0.00 in 0.00 W/m2
04:36 58.1 °F 46.4 °F 29.94 in ESE 1.0 mph 2.0 mph 65% 0.00 in 0.00 W/m2
04:41 58.1 °F 46.4 °F 29.94 in Calm   2.0 mph 65% 0.00 in 0.00 W/m2
04:46 58.0 °F 46.3 °F 29.95 in ESE 1.0 mph 2.0 mph 65% 0.00 in 0.00 W/m2
04:51 58.0 °F 46.3 °F 29.95 in Calm   1.0 mph 65% 0.00 in 0.00 W/m2
04:56 58.0 °F 46.3 °F 29.94 in ESE 1.0 mph 1.0 mph 65% 0.00 in 0.00 W/m2
05:01 57.9 °F 46.6 °F 29.94 in ESE 1.0 mph 1.0 mph 66% 0.00 in 0.00 W/m2
05:06 57.9 °F 46.6 °F 29.94 in ESE 1.0 mph 1.0 mph 66% 0.00 in 0.00 W/m2
05:11 57.8 °F 46.5 °F 29.95 in ESE 1.0 mph 1.0 mph 66% 0.00 in 0.00 W/m2
05:16 57.8 °F 46.5 °F 29.95 in Calm   1.0 mph 66% 0.00 in 0.00 W/m2
05:21 57.8 °F 46.1 °F 29.95 in Calm   1.0 mph 65% 0.00 in 0.00 W/m2
05:26 57.7 °F 46.4 °F 29.95 in Calm     66% 0.00 in 0.00 W/m2
05:31 57.7 °F 46.4 °F 29.95 in Calm   1.0 mph 66% 0.00 in 0.00 W/m2
05:36 57.6 °F 46.3 °F 29.95 in Calm   1.0 mph 66% 0.00 in 0.00 W/m2
05:41 57.6 °F 46.3 °F 29.95 in ESE 1.0 mph 1.0 mph 66% 0.00 in 0.00 W/m2
05:46 57.6 °F 46.3 °F 29.95 in Calm   1.0 mph 66% 0.00 in 5.00 W/m2
05:51 57.5 °F 46.2 °F 29.95 in ESE 1.0 mph 1.0 mph 66% 0.00 in 7.00 W/m2
05:56 57.5 °F 46.2 °F 29.95 in Calm   1.0 mph 66% 0.00 in 9.00 W/m2
06:01 57.4 °F 46.2 °F 29.95 in ESE 1.0 mph 1.0 mph 66% 0.00 in 12.00 W/m2
06:06 57.3 °F 46.0 °F 29.95 in Calm   1.0 mph 66% 0.00 in 14.00 W/m2
06:11 57.3 °F 46.0 °F 29.95 in Calm   1.0 mph 66% 0.00 in 18.00 W/m2
06:13 57.2 °F 46.0 °F 29.95 in ESE 1.0 mph 1.0 mph 66% 0.00 in 19.00 W/m2
06:18 57.2 °F 46.0 °F 29.96 in Calm   1.0 mph 66% 0.00 in 26.00 W/m2
06:23 57.2 °F 46.0 °F 29.96 in ESE 1.0 mph 2.0 mph 66% 0.00 in 35.00 W/m2
06:28 57.1 °F 45.9 °F 29.96 in ESE 1.0 mph 2.0 mph 66% 0.00 in 46.00 W/m2
06:33 57.1 °F 46.3 °F 29.96 in Calm   2.0 mph 67% 0.00 in 60.00 W/m2
06:38 57.1 °F 46.3 °F 29.96 in Calm   2.0 mph 67% 0.00 in 74.00 W/m2
06:43 57.1 °F 46.3 °F 29.96 in Calm   2.0 mph 67% 0.00 in 90.00 W/m2
06:48 57.1 °F 46.7 °F 29.96 in ESE 1.0 mph 2.0 mph 68% 0.00 in 107.00 W/m2
06:53 57.1 °F 46.7 °F 29.96 in Calm   2.0 mph 68% 0.00 in 127.00 W/m2
06:58 57.1 °F 47.0 °F 29.96 in Calm   2.0 mph 69% 0.00 in 146.00 W/m2
07:03 57.1 °F 47.0 °F 29.96 in ESE 1.0 mph 2.0 mph 69% 0.00 in 165.00 W/m2
07:08 57.1 °F 47.0 °F 29.96 in ESE 1.0 mph 2.0 mph 69% 0.00 in 181.00 W/m2
07:13 57.1 °F 47.4 °F 29.97 in Calm   2.0 mph 70% 0.00 in 202.00 W/m2
07:18 57.2 °F 47.5 °F 29.97 in Calm   2.0 mph 70% 0.00 in 223.00 W/m2
07:23 57.3 °F 47.6 °F 29.97 in Calm   2.0 mph 70% 0.00 in 244.00 W/m2
07:28 57.3 °F 48.0 °F 29.97 in ESE 1.0 mph 2.0 mph 71% 0.00 in 264.00 W/m2
07:33 57.3 °F 48.0 °F 29.97 in ESE 1.0 mph 2.0 mph 71% 0.00 in 285.00 W/m2
07:39 57.5 °F 48.6 °F 29.97 in ESE 1.0 mph 2.0 mph 72% 0.00 in 302.00 W/m2
07:44 57.6 °F 48.7 °F 29.97 in ESE 1.0 mph 2.0 mph 72% 0.00 in 318.00 W/m2
07:49 57.6 °F 48.7 °F 29.97 in ESE 1.0 mph 2.0 mph 72% 0.00 in 336.00 W/m2
07:54 57.8 °F 48.8 °F 29.97 in ESE 1.0 mph 1.0 mph 72% 0.00 in 350.00 W/m2
07:59 57.9 °F 49.3 °F 29.97 in ESE 1.0 mph 1.0 mph 73% 0.00 in 367.00 W/m2
08:04 58.0 °F 49.4 °F 29.97 in Calm     73% 0.00 in 383.00 W/m2
08:09 58.2 °F 50.0 °F 29.97 in Calm     74% 0.00 in 401.00 W/m2
08:14 58.4 °F 50.2 °F 29.97 in Calm     74% 0.00 in 418.00 W/m2
08:19 58.6 °F 50.3 °F 29.97 in Calm     74% 0.00 in 434.00 W/m2
08:24 58.9 °F 50.6 °F 29.97 in Calm     74% 0.00 in 448.00 W/m2
08:29 59.3 °F 51.4 °F 29.98 in Calm     75% 0.00 in 466.00 W/m2
08:34 59.5 °F 51.2 °F 29.98 in Calm     74% 0.00 in 482.00 W/m2
08:39 59.8 °F 50.8 °F 29.98 in Calm   4.0 mph 72% 0.00 in 497.00 W/m2
08:44 60.1 °F 51.8 °F 29.98 in ESE 2.0 mph 4.0 mph 74% 0.00 in 513.00 W/m2
08:49 60.5 °F 51.8 °F 29.98 in Calm     73% 0.00 in 529.00 W/m2
08:54 60.9 °F 49.5 °F 29.98 in Calm   2.0 mph 66% 0.00 in 545.00 W/m2
08:59 61.4 °F 46.5 °F 29.98 in Calm   2.0 mph 58% 0.00 in 563.00 W/m2
09:04 62.2 °F 46.3 °F 29.99 in NE 2.0 mph 3.0 mph 56% 0.00 in 575.00 W/m2
09:09 63.2 °F 45.8 °F 29.99 in Calm   5.0 mph 53% 0.00 in 591.00 W/m2
09:14 64.0 °F 45.5 °F 29.99 in Calm   3.0 mph 51% 0.00 in 605.00 W/m2
09:19 64.6 °F 45.6 °F 29.99 in Calm   2.0 mph 50% 0.00 in 621.00 W/m2
09:24 65.2 °F 45.6 °F 29.99 in WNW 3.0 mph 5.0 mph 49% 0.00 in 635.00 W/m2
09:29 65.8 °F 45.6 °F 29.99 in WNW 1.0 mph 3.0 mph 48% 0.00 in 649.00 W/m2
09:35 66.3 °F 46.0 °F 29.99 in Calm   3.0 mph 48% 0.00 in 664.00 W/m2
09:40 66.8 °F 45.9 °F 29.99 in Calm   4.0 mph 47% 0.00 in 675.00 W/m2
09:45 67.2 °F 45.7 °F 29.99 in NW 2.0 mph 6.0 mph 46% 0.00 in 689.00 W/m2
09:50 67.6 °F 46.1 °F 29.99 in NW 2.0 mph 5.0 mph 46% 0.00 in 703.00 W/m2
09:55 67.9 °F 47.5 °F 29.99 in NW 1.0 mph 2.0 mph 48% 0.00 in 714.00 W/m2
10:00 68.1 °F 47.1 °F 29.99 in Calm   3.0 mph 47% 0.00 in 728.00 W/m2
10:05 68.2 °F 48.3 °F 29.99 in Calm   2.0 mph 49% 0.00 in 740.00 W/m2
10:10 68.4 °F 48.0 °F 29.98 in Calm   3.0 mph 48% 0.00 in 751.00 W/m2
10:15 68.5 °F 46.9 °F 29.99 in NW 3.0 mph 7.0 mph 46% 0.00 in 763.00 W/m2
10:20 68.7 °F 47.7 °F 29.99 in NW 1.0 mph 7.0 mph 47% 0.00 in 773.00 W/m2
10:25 69.0 °F 47.4 °F 29.99 in Calm   6.0 mph 46% 0.00 in 784.00 W/m2
10:30 69.2 °F 48.7 °F 29.98 in Calm   5.0 mph 48% 0.00 in 796.00 W/m2
10:35 69.4 °F 47.7 °F 29.98 in Calm   4.0 mph 46% 0.00 in 807.00 W/m2
10:36 69.4 °F 47.7 °F 29.98 in NW 3.0 mph 3.0 mph 46% 0.00 in 809.00 W/m2
10:41 69.6 °F 48.5 °F 29.98 in NW 1.0 mph 1.0 mph 47% 0.00 in 817.00 W/m2
10:46 69.8 °F 49.2 °F 29.99 in WNW 1.0 mph 1.0 mph 48% 0.00 in 830.00 W/m2
10:51 70.0 °F 47.7 °F 29.98 in Calm     45% 0.00 in 838.00 W/m2
10:56 70.2 °F 49.0 °F 29.98 in Calm     47% 0.00 in 847.00 W/m2
11:01 70.4 °F 49.2 °F 29.98 in Calm   3.0 mph 47% 0.00 in 854.00 W/m2
11:06 70.6 °F 49.4 °F 29.98 in Calm     47% 0.00 in 865.00 W/m2
11:11 70.8 °F 49.0 °F 29.98 in NW 1.0 mph 1.0 mph 46% 0.00 in 872.00 W/m2
11:16 71.0 °F 49.2 °F 29.98 in Calm     46% 0.00 in 879.00 W/m2
11:21 71.2 °F 48.2 °F 29.98 in Calm     44% 0.00 in 888.00 W/m2
11:26 71.5 °F 49.7 °F 29.98 in NW 2.0 mph 3.0 mph 46% 0.00 in 891.00 W/m2
11:31 71.7 °F 49.8 °F 29.98 in Calm     46% 0.00 in 902.00 W/m2
11:36 72.0 °F 49.5 °F 29.98 in Calm   3.0 mph 45% 0.00 in 907.00 W/m2
11:41 72.4 °F 48.7 °F 29.98 in Calm     43% 0.00 in 916.00 W/m2
11:46 72.6 °F 48.2 °F 29.98 in Calm     42% 0.00 in 919.00 W/m2
11:51 72.8 °F 49.6 °F 29.98 in Calm   1.0 mph 44% 0.00 in 925.00 W/m2
11:56 73.1 °F 49.3 °F 29.98 in Calm     43% 0.00 in 928.00 W/m2
12:01 73.4 °F 50.2 °F 29.98 in NW 2.0 mph 3.0 mph 44% 0.00 in 932.00 W/m2
12:06 73.6 °F 51.0 °F 29.98 in Calm   1.0 mph 45% 0.00 in 937.00 W/m2
12:11 73.9 °F 49.4 °F 29.98 in Calm   10.0 mph 42% 0.00 in 942.00 W/m2
12:16 74.2 °F 49.0 °F 29.98 in Calm   5.0 mph 41% 0.00 in 944.00 W/m2
12:21 74.3 °F 49.1 °F 29.98 in NW 2.0 mph 5.0 mph 41% 0.00 in 947.00 W/m2
12:26 74.5 °F 49.9 °F 29.98 in Calm   2.0 mph 42% 0.00 in 947.00 W/m2
12:31 74.6 °F 48.7 °F 29.98 in NW 1.0 mph 5.0 mph 40% 0.00 in 953.00 W/m2
12:36 74.6 °F 48.7 °F 29.98 in NW 1.0 mph 1.0 mph 40% 0.00 in 954.00 W/m2
12:41 74.8 °F 50.2 °F 29.98 in Calm     42% 0.00 in 956.00 W/m2
12:46 75.2 °F 49.2 °F 29.97 in West 1.0 mph 4.0 mph 40% 0.00 in 954.00 W/m2
12:51 75.6 °F 49.6 °F 29.97 in NW 3.0 mph 3.0 mph 40% 0.00 in 958.00 W/m2
12:56 75.8 °F 49.8 °F 29.97 in WNW 3.0 mph 4.0 mph 40% 0.00 in 956.00 W/m2
13:01 76.1 °F 49.4 °F 29.97 in Calm   2.0 mph 39% 0.00 in 956.00 W/m2
13:06 76.4 °F 50.3 °F 29.97 in West 3.0 mph 4.0 mph 40% 0.00 in 954.00 W/m2
13:11 76.5 °F 48.3 °F 29.97 in West 2.0 mph 3.0 mph 37% 0.00 in 953.00 W/m2
13:16 76.8 °F 48.6 °F 29.96 in West 2.0 mph 5.0 mph 37% 0.00 in 954.00 W/m2
13:21 76.9 °F 50.1 °F 29.96 in WSW 3.0 mph 4.0 mph 39% 0.00 in 949.00 W/m2
13:26 77.4 °F 51.2 °F 29.96 in Calm     40% 0.00 in 949.00 W/m2
13:31 78.1 °F 49.0 °F 29.96 in Calm   3.0 mph 36% 0.00 in 947.00 W/m2
13:36 78.2 °F 49.1 °F 29.95 in West 3.0 mph 4.0 mph 36% 0.00 in 944.00 W/m2
13:41 78.0 °F 51.1 °F 29.95 in WSW 5.0 mph 5.0 mph 39% 0.00 in 940.00 W/m2
13:46 78.2 °F 49.8 °F 29.95 in West 2.0 mph 5.0 mph 37% 0.00 in 940.00 W/m2
13:51 78.2 °F 49.8 °F 29.95 in Calm   2.0 mph 37% 0.00 in 933.00 W/m2
13:56 78.4 °F 50.7 °F 29.95 in West 2.0 mph 4.0 mph 38% 0.00 in 926.00 W/m2
14:01 78.4 °F 50.0 °F 29.95 in NW 6.0 mph 9.0 mph 37% 0.00 in 925.00 W/m2
14:06 78.4 °F 50.7 °F 29.95 in WNW 2.0 mph 3.0 mph 38% 0.00 in 918.00 W/m2
14:12 78.4 °F 50.0 °F 29.95 in WNW 4.0 mph 6.0 mph 37% 0.00 in 912.00 W/m2
14:17 78.2 °F 50.5 °F 29.95 in Calm   1.0 mph 38% 0.00 in 905.00 W/m2
14:22 78.0 °F 49.7 °F 29.94 in Calm   5.0 mph 37% 0.00 in 900.00 W/m2
14:27 78.0 °F 49.7 °F 29.94 in West 4.0 mph 6.0 mph 37% 0.00 in 895.00 W/m2
14:32 78.0 °F 51.1 °F 29.94 in Calm   2.0 mph 39% 0.00 in 884.00 W/m2
14:37 78.1 °F 50.5 °F 29.95 in WNW 4.0 mph 7.0 mph 38% 0.00 in 877.00 W/m2
14:42 78.0 °F 49.7 °F 29.94 in WNW 1.0 mph 5.0 mph 37% 0.00 in 870.00 W/m2
14:47 78.0 °F 49.7 °F 29.94 in West 1.0 mph 3.0 mph 37% 0.00 in 865.00 W/m2
14:52 78.1 °F 49.0 °F 29.94 in WSW 3.0 mph 5.0 mph 36% 0.00 in 856.00 W/m2
14:57 78.2 °F 49.8 °F 29.94 in WNW 1.0 mph 4.0 mph 37% 0.00 in 846.00 W/m2
15:02 78.2 °F 49.8 °F 29.94 in West 4.0 mph 6.0 mph 37% 0.00 in 837.00 W/m2
15:07 78.2 °F 51.2 °F 29.94 in Calm   1.0 mph 39% 0.00 in 826.00 W/m2
15:12 78.4 °F 50.7 °F 29.94 in West 1.0 mph 5.0 mph 38% 0.00 in 821.00 W/m2
15:17 78.4 °F 50.0 °F 29.94 in West 5.0 mph 5.0 mph 37% 0.00 in 807.00 W/m2
15:22 78.5 °F 50.8 °F 29.94 in WSW 3.0 mph 3.0 mph 38% 0.00 in 798.00 W/m2
15:27 78.6 °F 49.4 °F 29.94 in WSW 3.0 mph 4.0 mph 36% 0.00 in 789.00 W/m2
15:32 78.7 °F 50.3 °F 29.94 in Calm     37% 0.00 in 777.00 W/m2
15:37 78.7 °F 50.3 °F 29.94 in WNW 1.0 mph 8.0 mph 37% 0.00 in 763.00 W/m2
15:42 78.7 °F 50.3 °F 29.93 in Calm   4.0 mph 37% 0.00 in 754.00 W/m2
15:47 78.7 °F 50.3 °F 29.93 in West 1.0 mph 9.0 mph 37% 0.00 in 744.00 W/m2
15:52 78.7 °F 50.3 °F 29.93 in West 5.0 mph 8.0 mph 37% 0.00 in 733.00 W/m2
15:57 78.6 °F 49.4 °F 29.93 in West 1.0 mph 2.0 mph 36% 0.00 in 715.00 W/m2
16:02 78.5 °F 50.1 °F 29.93 in Calm   3.0 mph 37% 0.00 in 705.00 W/m2
16:07 78.5 °F 50.1 °F 29.93 in West 6.0 mph 6.0 mph 37% 0.00 in 693.00 W/m2
16:12 78.4 °F 50.0 °F 29.92 in Calm   1.0 mph 37% 0.00 in 682.00 W/m2
16:17 78.3 °F 49.9 °F 29.92 in WNW 2.0 mph 4.0 mph 37% 0.00 in 661.00 W/m2
16:22 78.3 °F 49.2 °F 29.92 in WSW 6.0 mph 6.0 mph 36% 0.00 in 652.00 W/m2
16:27 78.2 °F 50.5 °F 29.92 in WSW 7.0 mph 8.0 mph 38% 0.00 in 638.00 W/m2
16:32 78.3 °F 49.9 °F 29.92 in WNW 1.0 mph 3.0 mph 37% 0.00 in 621.00 W/m2
16:37 78.3 °F 49.2 °F 29.92 in West 5.0 mph 9.0 mph 36% 0.00 in 612.00 W/m2
16:42 78.3 °F 49.9 °F 29.92 in Calm   9.0 mph 37% 0.00 in 598.00 W/m2
16:47 78.3 °F 49.2 °F 29.92 in Calm     36% 0.00 in 584.00 W/m2
16:52 78.3 °F 48.4 °F 29.92 in Calm     35% 0.00 in 568.00 W/m2
16:57 78.2 °F 50.5 °F 29.92 in Calm   5.0 mph 38% 0.00 in 555.00 W/m2
17:02 78.3 °F 48.4 °F 29.92 in Calm   6.0 mph 35% 0.00 in 540.00 W/m2
17:07 78.2 °F 48.3 °F 29.92 in Calm   2.0 mph 35% 0.00 in 526.00 W/m2
17:12 78.2 °F 47.6 °F 29.92 in Calm   3.0 mph 34% 0.00 in 504.00 W/m2
17:17 78.2 °F 48.3 °F 29.92 in NW 2.0 mph 8.0 mph 35% 0.00 in 490.00 W/m2
17:22 78.2 °F 48.3 °F 29.92 in Calm     35% 0.00 in 475.00 W/m2
17:27 78.2 °F 48.3 °F 29.92 in WSW 7.0 mph 8.0 mph 35% 0.00 in 461.00 W/m2
17:32 78.3 °F 48.4 °F 29.91 in Calm   4.0 mph 35% 0.00 in 445.00 W/m2
17:37 78.3 °F 48.4 °F 29.91 in Calm   3.0 mph 35% 0.00 in 424.00 W/m2
17:42 78.2 °F 48.3 °F 29.91 in Calm   4.0 mph 35% 0.00 in 410.00 W/m2
17:47 78.2 °F 49.8 °F 29.91 in Calm   12.0 mph 37% 0.00 in 394.00 W/m2
17:52 78.2 °F 49.1 °F 29.91 in Calm     36% 0.00 in 381.00 W/m2
17:57 78.0 °F 48.9 °F 29.91 in Calm   5.0 mph 36% 0.00 in 362.00 W/m2
18:03 77.8 °F 48.0 °F 29.91 in Calm   5.0 mph 35% 0.00 in 346.00 W/m2
18:08 77.7 °F 48.7 °F 29.91 in Calm   7.0 mph 36% 0.00 in 332.00 W/m2
18:13 77.6 °F 48.6 °F 29.91 in West 1.0 mph 5.0 mph 36% 0.00 in 315.00 W/m2
18:18 77.5 °F 47.7 °F 29.91 in Calm   1.0 mph 35% 0.00 in 297.00 W/m2
18:23 77.3 °F 46.8 °F 29.91 in Calm   6.0 mph 34% 0.00 in 279.00 W/m2
18:28 77.1 °F 47.4 °F 29.91 in WNW 2.0 mph 4.0 mph 35% 0.00 in 264.00 W/m2
18:33 76.9 °F 45.6 °F 29.91 in Calm     33% 0.00 in 251.00 W/m2
18:38 76.8 °F 49.3 °F 29.91 in WNW 6.0 mph 10.0 mph 38% 0.00 in 232.00 W/m2
18:43 76.7 °F 47.8 °F 29.91 in West 1.0 mph 6.0 mph 36% 0.00 in 214.00 W/m2
18:48 76.6 °F 48.4 °F 29.91 in Calm   1.0 mph 37% 0.00 in 197.00 W/m2
18:53 76.4 °F 50.3 °F 29.91 in West 1.0 mph 2.0 mph 40% 0.00 in 181.00 W/m2
18:58 76.2 °F 50.1 °F 29.91 in Calm   1.0 mph 40% 0.00 in 163.00 W/m2
19:03 75.9 °F 49.9 °F 29.91 in Calm     40% 0.00 in 144.00 W/m2
19:08 75.6 °F 50.3 °F 29.91 in Calm     41% 0.00 in 127.00 W/m2
19:13 75.2 °F 49.9 °F 29.91 in Calm     41% 0.00 in 111.00 W/m2
19:18 74.9 °F 50.3 °F 29.91 in Calm     42% 0.00 in 91.00 W/m2
19:23 74.6 °F 50.7 °F 29.91 in Calm     43% 0.00 in 74.00 W/m2
19:28 74.2 °F 50.9 °F 29.91 in Calm     44% 0.00 in 60.00 W/m2
19:33 73.8 °F 51.8 °F 29.91 in Calm     46% 0.00 in 46.00 W/m2
19:38 73.4 °F 50.8 °F 29.91 in Calm     45% 0.00 in 33.00 W/m2
19:43 72.9 °F 51.5 °F 29.91 in Calm     47% 0.00 in 25.00 W/m2
19:48 72.5 °F 51.7 °F 29.91 in Calm     48% 0.00 in 18.00 W/m2
19:53 72.0 °F 51.3 °F 29.91 in Calm     48% 0.00 in 16.00 W/m2
19:58 71.5 °F 51.4 °F 29.91 in Calm     49% 0.00 in 12.00 W/m2
20:03 71.0 °F 50.9 °F 29.91 in Calm     49% 0.00 in 11.00 W/m2
20:08 70.5 °F 50.4 °F 29.91 in Calm     49% 0.00 in 9.00 W/m2
20:13 70.1 °F 50.6 °F 29.91 in Calm     50% 0.00 in 5.00 W/m2
20:18 69.7 °F 49.7 °F 29.91 in Calm     49% 0.00 in 5.00 W/m2
20:23 69.3 °F 49.9 °F 29.92 in Calm     50% 0.00 in 0.00 W/m2
20:28 68.9 °F 49.5 °F 29.92 in Calm     50% 0.00 in 0.00 W/m2
20:29 68.8 °F 50.0 °F 29.92 in Calm     51% 0.00 in 0.00 W/m2
20:34 68.5 °F 48.6 °F 29.92 in Calm     49% 0.00 in 0.00 W/m2
20:39 68.2 °F 48.9 °F 29.92 in Calm     50% 0.00 in 0.00 W/m2
20:44 67.9 °F 48.6 °F 29.92 in Calm     50% 0.00 in 0.00 W/m2
20:49 67.7 °F 48.4 °F 29.92 in Calm     50% 0.00 in 0.00 W/m2
20:54 67.5 °F 47.7 °F 29.92 in Calm     49% 0.00 in 0.00 W/m2
20:59 67.3 °F 48.0 °F 29.92 in Calm     50% 0.00 in 0.00 W/m2
21:04 67.1 °F 47.3 °F 29.92 in Calm     49% 0.00 in 0.00 W/m2
21:05 67.1 °F 47.3 °F 29.92 in Calm     49% 0.00 in 0.00 W/m2
21:11 67.0 °F 47.8 °F 29.92 in Calm     50% 0.00 in 0.00 W/m2
21:16 66.8 °F 47.6 °F 29.92 in Calm     50% 0.00 in 0.00 W/m2
21:21 66.7 °F 47.5 °F 29.92 in Calm     50% 0.00 in 0.00 W/m2
21:26 66.6 °F 47.4 °F 29.93 in Calm     50% 0.00 in 0.00 W/m2
21:31 66.5 °F 47.3 °F 29.93 in Calm     50% 0.00 in 0.00 W/m2
21:36 66.4 °F 47.2 °F 29.93 in Calm     50% 0.00 in 0.00 W/m2
21:41 66.3 °F 47.1 °F 29.93 in Calm     50% 0.00 in 0.00 W/m2
21:46 66.2 °F 47.6 °F 29.93 in Calm   1.0 mph 51% 0.00 in 0.00 W/m2
21:51 66.2 °F 47.6 °F 29.93 in Calm     51% 0.00 in 0.00 W/m2
21:56 66.1 °F 47.5 °F 29.93 in Calm     51% 0.00 in 0.00 W/m2
22:01 66.0 °F 47.9 °F 29.93 in Calm     52% 0.00 in 0.00 W/m2
22:07 65.9 °F 47.8 °F 29.93 in Calm     52% 0.00 in 0.00 W/m2
22:12 65.8 °F 48.2 °F 29.93 in Calm     53% 0.00 in 0.00 W/m2
22:17 65.8 °F 48.2 °F 29.94 in ESE 1.0 mph 2.0 mph 53% 0.00 in 0.00 W/m2
22:22 65.7 °F 48.1 °F 29.94 in Calm   2.0 mph 53% 0.00 in 0.00 W/m2
22:27 65.6 °F 48.0 °F 29.94 in Calm   1.0 mph 53% 0.00 in 0.00 W/m2
22:32 65.6 °F 48.5 °F 29.93 in ESE 1.0 mph 1.0 mph 54% 0.00 in 0.00 W/m2
22:37 65.5 °F 48.4 °F 29.93 in ESE 1.0 mph 1.0 mph 54% 0.00 in 0.00 W/m2
22:42 65.4 °F 47.8 °F 29.93 in ESE 1.0 mph 1.0 mph 53% 0.00 in 0.00 W/m2
22:47 65.4 °F 48.3 °F 29.93 in Calm   4.0 mph 54% 0.00 in 0.00 W/m2
22:52 65.3 °F 48.2 °F 29.93 in ESE 2.0 mph 4.0 mph 54% 0.00 in 0.00 W/m2
22:57 65.3 °F 47.8 °F 29.93 in Calm   1.0 mph 53% 0.00 in 0.00 W/m2
23:02 65.2 °F 47.7 °F 29.93 in Calm   1.0 mph 53% 0.00 in 0.00 W/m2
23:07 65.2 °F 47.7 °F 29.94 in Calm   1.0 mph 53% 0.00 in 0.00 W/m2
23:12 65.1 °F 47.6 °F 29.94 in Calm   4.0 mph 53% 0.00 in 0.00 W/m2
23:17 65.0 °F 48.0 °F 29.94 in East 1.0 mph 4.0 mph 54% 0.00 in 0.00 W/m2
23:22 65.0 °F 48.0 °F 29.94 in ESE 1.0 mph 4.0 mph 54% 0.00 in 0.00 W/m2
23:27 64.9 °F 47.9 °F 29.94 in Calm   1.0 mph 54% 0.00 in 0.00 W/m2
23:37 64.8 °F 48.3 °F 29.93 in ESE 1.0 mph 2.0 mph 55% 0.00 in 0.00 W/m2
23:42 64.7 °F 48.2 °F 29.93 in ESE 4.0 mph 6.0 mph 55% 0.00 in 0.00 W/m2
23:47 64.7 °F 48.2 °F 29.93 in Calm   2.0 mph 55% 0.00 in 0.00 W/m2
23:52 64.6 °F 48.1 °F 29.94 in East 2.0 mph 4.0 mph 55% 0.00 in 0.00 W/m2
23:57 64.5 °F 47.5 °F 29.94 in ESE 6.0 mph 6.0 mph 54% 0.00 in 0.00 W/m2
Foresthill Weather
 WU-history PHP script courtesy of   Juneau County Weather.
powered by Cumulus v1.9.3 (1059)
Ambient Weather VWS v14.00
Top Contact Website Map Copyright © 2007 - 2018 Foresthillweather.com Never base important decisions on this or any weather information obtained from the Internet